Regional Weather Roundup
Issued by NWS Jackson, KY

Home | Current Version | Previous Version | Text Only | Print | Product List | Glossary On
Versions: 1 2 3 4 5 6 7 8 9 10 11 12 13 14 15 16 17 18 19 20 21 22 23 24 25 26 27 28 29 30 31 32 33 34 35 36 37 38 39 40 41 42 43 44 45 46 47 48 49 50
000
ASUS43 KJKL 041710
RWRJKL

EAST KENTUCKY HOURLY WEATHER ROUNDUP
NATIONAL WEATHER SERVICE JACKSON KY
100 PM EDT WED MAY 04 2016

NOTE: "FAIR" INDICATES FEW OR NO CLOUDS BELOW 12,000 FEET WITH
NO SIGNIFICANT WEATHER AND/OR OBSTRUCTIONS TO VISIBILITY.

* THESE REPORTS ARE NOT UNDER NWS QUALITY CONTROL AND MAY NOT
  REPORT WEATHER SUCH AS PRECIPITATION AND FOG.

KYZ079-080-083-085-087-088-110-112-115-119-120-041800
...EASTERN KENTUCKY...

CITY           SKY/WX    TMP DP  RH WIND       PRES   REMARKS
JACKSON        PTSUNNY   63  45  51 CALM      29.72F
LONDON         PTSUNNY   64  36  35 SW15      29.74F
SOMERSET*      CLOUDY    61  39  44 W10       29.75F
MONTICELLO*    MOSUNNY   64  45  49 SW21G26   29.75F
WILLIAMSBURG*  PTSUNNY   59  37  44 W8        29.75F
MIDDLESBORO*   PTSUNNY   63  38  40 CALM      29.76F
HARLAN APT*    PTSUNNY   61  36  39 SW5       29.76F
HAZARD APT*    PTSUNNY   63  41  45 SW7       29.73F
BLACK MTN*       N/A     48  39  71 VRB2        N/A
PIKE CO APT*   CLOUDY    58  43  57 SW5       29.73F
BIG SANDY APT* CLOUDY    60  45  56 W6        29.72F
MOREHEAD APT*  CLOUDY    64  43  45 SW12G18   29.71F
$$

KYZ035-036-041-042-044-050-067-078-099-041800
...CENTRAL KENTUCKY...

CITY           SKY/WX    TMP DP  RH WIND       PRES   REMARKS
MT STERLING*   CLOUDY    59  43  55 W8        29.72S
FLEMING/MASON* CLOUDY    59  42  53 W20G25    29.71S
DANVILLE*      PTSUNNY   63  41  45 W16       29.72F
RICHMOND*      PTSUNNY   61  39  44 SW12G20   29.71F
LEXINGTON      CLOUDY    59  42  53 W12       29.71F
FRANKFORT      RAIN      54  47  77 W10G17    29.72R
LOUISVILLE     LGT RAIN  54  50  86 SW9       29.72S
LEBANON*       LGT RAIN  54  50  87 W14       29.74R
BOWLING GREEN  LGT RAIN  58  52  80 W5        29.75F
$$

KYZ091>093-OHZ055-061-077-WVZ005-015-034-035-042-041800
...SOUTHERN OHIO/WEST VIRGINIA...

CITY           SKY/WX    TMP DP  RH WIND       PRES   REMARKS
COVINGTON      LGT RAIN  52  47  83 SW8       29.69F
COLUMBUS       CLOUDY    59  44  57 SW17G24   29.63F
DAYTON         CLOUDY    51  49  92 S10       29.66F
WILMINGTON     LGT RAIN  52  45  77 W18       29.68R
HUNTINGTON     LGT RAIN  61  45  55 SW7       29.69F
CHARLESTON     PTSUNNY   61  43  51 SW7       29.70F
PINEVILLE*     CLOUDY    56  45  64 MISG      29.78F
BECKLEY        PTSUNNY   56  41  57 W7        29.73S
$$

VAZ002-007-008-TNZ017-027-036-066-071-041800
...SOUTHWEST VIRGINIA/EAST TENNESSEE...

CITY           SKY/WX    TMP DP  RH WIND       PRES   REMARKS
WISE*          CLOUDY    55  36  47 W5        29.77F
BRISTOL        CLOUDY    60  43  53 SW9       29.76F
MORRISTOWN*    MOSUNNY   63  41  45 VRB7G14   29.77F
SEVIERVILLE*   MOSUNNY   64  41  42 W8        29.77F
KNOXVILLE      MOSUNNY   64  41  42 W10       29.78F
OAK RIDGE      MOSUNNY   66  39  37 VRB3      29.78F
CROSSVILLE     MOSUNNY   62  40  44 MISG      29.80F
NASHVILLE      PTSUNNY   69  44  40 W7        29.76F
$$

...KEY TO REMARKS...
VSB - VISIBILITY IN MILES
WCI - WIND CHILL INDEX
HX  - HEAT INDEX

$$



USA.gov is the U.S. government's official web portal to all federal, state and local government web resources and services.